YAOGAN-10

Last updated on Mon Jun 22 2026 00:02:51 GMT+0000 (Coordinated Universal Time)

1 36834U 10038A 26172.54471892 .00001149 00000+0 13987-3 0 9999 2 36834 97.8975 195.9149 0001741 85.2540 66.2465 14.85360559857854
UTC large
Height (km)
Speed (km/s)
/
Latitude / Longitude
Inclination (degrees)
Orbital Period (minutes)
Azimuth
Elevation
Range (km)
Doppler Factor

Next 0 passes for location: London (51.5072 / 0.1276)

No passes found over London.
YAOGAN-10